Location: Songkhla
(7.2000°N, 100.6000°E)
Time: 22:39:54
(UTC+07:00)

ISS - Visible Passes

Search period start: 20 March 2019 00:00
Search period end: 30 March 2019 00:00
Orbit: 406 x 411 km, 51.6° (Epoch: 21 March)

Date Brightness Start Highest point End Pass type
(mag) Time Alt. Az. Time Alt. Az. Time Alt. Az.
21 Mar -3.9 05:19:15 24° NW 05:21:06 87° NE 05:24:23 10° SE visible
22 Mar -1.1 04:31:48 19° ESE 04:31:48 19° ESE 04:33:04 10° ESE visible
23 Mar -1.6 05:17:05 15° SSW 05:17:05 15° SSW 05:17:59 10° S visible
